Location: Gisborne
(38.6530°S, 178.0040°E)
Time: 15:47:39
(UTC+13:00)

NOSS 3-2 (C) - Pass Details

Date: 24 January 2019
Orbit: 839 x 1373 km, 63.4° (Epoch: 17 February)

Event Time Altitude Azimuth Distance (km) Brightness Sun altitude
Exits shadow 23:03:16 41° 22° (NNE) 1,849 4.4 -23.8°
Maximum altitude 23:05:34 51° 64° (ENE) 1,612 4.2 -24.1°
Drops below altitude 10° 23:13:01 10° 137° (SE) 3,179 6.3 -24.9°
Sets 23:15:44 0° 141° (SE) 4,076 7.0 -25.2°
